Showing default

SKYNET 1, 4250

Orbit data source: Space-Track

SKYNET 1, 4250 is a payload satellite owned by UK MoD (UK) in GEO that was launched on Sat, 22 Nov 1969 UTC via a THOR DELTA M launch vehicle from the Air Force Eastern Test Range (AFETR). Payload-class satellites include a variety of spacecraft equipped with specific instruments for various scientific and technological missions. These include communications satellites like Starlink; space stations such as the ISS; scientific satellites like the Hubble; Earth observation satellites from companies like Planet Labs, Umbra, and HawkEye 360; GPS; miniature CubeSats for education and research; and military/defense satellites.

Loading next visibility...
Identifier
4250, 1969-101A
Orbit
GEO
Country
Flag of UKUK
Related business
Manufacturer
Philco-Ford
Mission
Non-operational Defense Communications
Bus & Motor
SKYNET, STAR 17A
Mass
243 kg wet, 107 kg dry
Launch date (UTC)
1969-11-22 (56 years ago)
Launch vehicle
THOR DELTA M
Launch site
Air Force Eastern Test Range (AFETR)
Object type
Payload
Rocket body
Debris
Shape & HBR
Cyl, 0.7 m
Radar Cross Section
1.131 m², Large (>1 m²)

Expand to show TLE details & history
Last TLE update: 17 hours ago

TLE from 17 hours ago
0 SKYNET 1
1 04250U 69101A   25242.43412515 -.00000087  00000-0  00000-0 0  9994
2 04250   0.3216 276.6533 0025197 317.1838 156.5460  1.00275721131605
Epoch: 2025-08-30T10:25Z
TLE epoch observation values (Epoch: 2025-08-30T10:25:08.412Z)
Latitude
0.27638°
Longitude
-104.65951°
Altitude
35,882.161 km
Speed
3.068 km/s
True Right ascension
02h 01m 58s
True Declination
0° 16' 34"
Sunlit
Object was in daylight at epoch
Visualization orbit readout
Latitude
Unknown
Longitude
Unknown
Altitude
Unknown
Speed
Unknown
Apparent Right ascension
Unknown
Apparent Declination
Unknown
Sunlit
N/A
Visualization observer readout
Local Sidereal Time
18:40:22
Azimuth
Unknown
Elevation
Unknown
Doppler factor
Unknown
Orbital elements
Apogee altitude
35,892.804 km
Perigee altitude
35,680.32 km
Semi-major axis
42,164.699 km
Eccentricity
0.00252
Inclination
0.3216°
RAAN
276.6533°
Arg. of periapsis
317.1838°
True anomaly
156.66059°
Mean anomaly
156.546°
Eccentric anomaly
156.60333°
Mean motion
0.25068 °/min
Orbital period
1,436.09 mins
BSTAR
0
Loading maneuver chart data...
Computing Atmospheric mass density...
Loading historical data...
Loading historical data...
Loading historical data...
Loading historical data...
Loading historical data...
Loading historical data...
Loading historical data...
Other satellites on launch #101 in the year 1969 (1969-11-22 UTC)

Documentation

Showing up to 5 results
|